Regional Weather Roundup
Issued by NWS

Home | Current Version | Previous Version | Graphics & Text | Print | Product List | Glossary On
Versions: 1 2 3 4 5 6 7 8 9 10 11 12 13 14 15 16 17 18 19 20 21 22 23 24 25 26 27 28 29 30 31 32 33 34 35 36 37 38 39 40 41 42 43 44 45 46 47 48 49 50
000
ASUS43 KTOP 311059
RWRKS

WEATHER ROUNDUP FOR KANSAS
NATIONAL WEATHER SERVICE GOODLAND KS
600 AM CDT FRI JUL 31 2015

NOTE:  "FAIR" INDICATES FEW OR NO CLOUDS BELOW 12,000 FEET WITH NO
SIGNIFICANT WEATHER AND/OR OBSTRUCTIONS TO VISIBILITY.

KSZ001>006-013>018-027>032-041>047-311200-
NORTHWEST KANSAS

CITY           SKY/WX    TMP DP  RH WIND       PRES   REMARKS
GOODLAND       FOG       58  58 100 S6        30.28R VSB 1/4
HAYS           CLEAR     64  57  77 CALM      30.21R
HILL CITY      CLEAR     68  66  93 CALM      30.21R
RUSSELL        CLEAR     67  66  97 S6        30.18R
$$

KSZ061>065-074>080-084>089-311200-
SOUTHWEST KANSAS

CITY           SKY/WX    TMP DP  RH WIND       PRES   REMARKS
DODGE CITY     PTCLDY    66  65  96 SW5       30.23R FOG
ELKHART          N/A     68  64  87 W3          N/A
GARDEN CITY    MOCLDY    67  66  97 CALM      30.23F FOG
GREAT BEND     CLOUDY    66  63  88 CALM      30.20R VSB<1/4
LIBERAL        CLOUDY    72  66  83 E3        30.23S
PRATT          PTCLDY    68  66  94 CALM      30.22R FOG
$$

KSZ066>073-081>083-090>101-311200-
SOUTHEAST KANSAS

CITY           SKY/WX    TMP DP  RH WIND       PRES   REMARKS
CHANUTE        MOCLDY    69  67  93 CALM      30.17R
COFFEYVILLE    MOCLDY    74  69  85 CALM      30.14S
HUTCHINSON     FOG       66  64  93 NW5       30.19R VSB 1
MEDICINE LODGE   N/A     69  69 100 N3        30.18R
NEWTON         CLEAR     68  63  83 E3        30.20S
PARSONS        MOCLDY    71  68  90 CALM      30.17R
WICHITA INTL   CLEAR     74  67  78 CALM      30.17R
WICHITA JABRA  PTCLDY    68  67  96 N3        30.18R
WINFIELD       MOCLDY    72  67  84 NE3       30.17R
$$

KSZ007>012-019>026-033>040-048>060-102>105-311200-
NORTHEAST KANSAS

CITY           SKY/WX    TMP DP  RH WIND       PRES   REMARKS
CONCORDIA      CLEAR     67  64  90 CALM      30.17S
EMPORIA        CLEAR     65  64  97 NW3       30.17S
LAWRENCE       PTCLDY    59  58  96 NW6       30.17R
MANHATTAN      CLEAR     63  62  97 CALM      30.16S
OLATHE IND     CLEAR     63  60  90 S3        30.18R
OLATHE EXE     CLEAR     63  62  97 SW3       30.17R
SALINA         CLEAR     67  65  93 CALM      30.18R
TOPEKA BILLARD CLEAR     63  62  97 CALM      30.16S
TOPEKA FORBES  CLEAR     63  60  90 CALM      30.16S
$$



USA.gov is the U.S. government's official web portal to all federal, state and local government web resources and services.